Regional Weather Roundup
Issued by NWS Northern Indiana

Home | Current Version | Previous Version | Text Only | Print | Product List | Glossary Off
Versions: 1 2 3 4 5 6 7 8 9 10 11 12 13 14 15 16 17 18 19 20 21 22 23 24 25 26 27 28 29 30 31 32 33 34 35 36 37 38 39 40 41 42 43 44 45 46 47 48 49 50

000
ASUS43 KIWX 162100
RWRIWX

KIWX WEATHER ROUNDUP
NATIONAL WEATHER SERVICE NORTHERN INDIANA
500 PM EDT WED APR 16 2014

NOTE: "FAIR" INDICATES FEW OR NO CLOUDS BELOW 12,000 FEET WITH NO
SIGNIFICANT WEATHER AND/OR OBSTRUCTIONS TO VISIBILITY.

* THESE STATIONS ARE NOT UNDER NWS QUALITY CONTROL. THEY ALSO MAY NOT
  REPORT WEATHER SUCH AS PRECIPITATION OR FOG.

INZ001>027-162200-
NORTHERN INDIANA

CITY           SKY/WX    TMP DP  RH WIND       PRES   REMARKS
VALPARAISO     MOSUNNY   49  20  31 S17G31    30.22F
SOUTH BEND     PTSUNNY   49  20  31 SE20G25   30.26F
ELKHART*       PTSUNNY   46  18  31 SE17      30.27
GOSHEN         PTSUNNY   49  21  33 SE15G23   30.27F
MONTICELLO*    SUNNY     49  24  37 SE8G20    30.23F
ANGOLA*        SUNNY     45  23  42 SE15      30.31F
FORT WAYNE     PTSUNNY   47  21  35 SE14G22   30.31F
PERU/GRISSOM   SUNNY     50  24  36 SE18      30.25F

$$
INZ028>050-162200-
CENTRAL INDIANA

CITY           SKY/WX    TMP DP  RH WIND       PRES   REMARKS
LAFAYETTE      SUNNY     50  22  33 SE14G23   30.23F
KOKOMO*        SUNNY     48  27  43 SE17      30.25F
MUNCIE*        SUNNY     47  20  34 SE13G22   30.27F
INDIANAPOLIS   PTSUNNY   49  22  34 SE16G25   30.24F

$$
MIZ043>046-050>051-056>058-064>065-071>073-077>080-162200-
SOUTHWEST LOWER MICHIGAN

CITY           SKY/WX    TMP DP  RH WIND       PRES   REMARKS
BATTLE CREEK   MOSUNNY   45  18  34 SE17G24   30.30F
BENTON HARBOR  PTSUNNY   49  20  31 SE10G26   30.25F
COLDWATER*     MOSUNNY   44  20  38 S12       30.31S
HILLSDALE*     MOSUNNY   44  19  37 SE13G22   30.32S
HOLLAND        MOSUNNY   50  21  32 SE17G24   30.27F
GRAND RAPIDS   CLOUDY    48  20  32 SE18G29   30.28F
KALAMAZOO      MOSUNNY   46  18  32 S12G23    30.28F
STURGIS*       MOSUNNY   46  21  36 SE16      30.28F
THREE RIVERS*  FAIR      48  18  30 S12G23    30.29F

$$
OHZ001>008-015>018-024>025-162200-
NORTHWEST OHIO

CITY           SKY/WX    TMP DP  RH WIND       PRES   REMARKS
DEFIANCE       MOSUNNY   46  22  38 SE10      30.34F
FINDLAY        MOSUNNY   46  27  47 SE12      30.34F
TOLEDO EXPRESS MOSUNNY   43  22  43 SE12      30.36F
TOLEDO METCALF MOSUNNY   44  23  43 SE13      30.38F
LIMA           SUNNY     47  25  42 SE10G20   30.32F

$$
&&



USA.gov is the U.S. government's official web portal to all federal, state and local government web resources and services.